Weather History for Burlington, VT

Change the Weather History Date:

Tuesday, February 12, 2013

  Actual Average Record
Temperature  
Mean Temperature 36 °F 21 °F  
Max Temperature 38 °F 30 °F 56 °F (1999)
Min Temperature 34 °F 12 °F -30 °F (1979)
Degree Days  
Heating Degree Days 29 44  
Month to date heating degree days 576 542  
Since 1 July heating degree days 4312 4736  
Cooling Degree Days 0 0  
Month to date cooling degree days 0 0  
Year to date cooling degree days 0 0  
Moisture  
Dew Point 26 °F    
Average Humidity 68    
Maximum Humidity 76    
Minimum Humidity 59    
Precipitation  
Precipitation T in 0.07 in 0.96 in (1925)
Month to date precipitation 0.65 0.76  
Year to date precipitation 1.76 2.82  
Snow  
Snow T in 0.60 in 6.80 in (1988)
Month to date snowfall 12.0 7.3  
Since 1 July snowfall 61.1 51.7  
Snow Depth 2.00 in    
Sea Level Pressure  
Sea Level Pressure 29.71 in    
Wind  
Wind Speed 8 mph (WSW)    
Max Wind Speed 18 mph    
Max Gust Speed 28 mph    
Visibility 10 miles    
Events Snow    
T = Trace of Precipitation, MM = Missing Value Source: NWS Daily Summary

Daily Weather History Graph

Daily Weather History Graph

Search for Another Location

Airport:

Trip Planner

Search our weather history database for the weather conditions in past years. The results will help you decide how hot, cold, wet, or windy it might be!

Date:

Astronomy

Feb. 12, 2013 Rise Set
Actual Time 6:56 AM EST 5:17 PM EST
Civil Twilight 6:26 AM EST 5:47 PM EST
Nautical Twilight 5:52 AM EST 6:21 PM EST
Astronomical Twilight 5:18 AM EST 6:55 PM EST
Moon 7:44 AM EST (2/12) 8:25 PM EST (2/12)
Length of Visible Light 11h 21m
Length of Day
10h 21m
Waxing Crescent, 7% of the Moon is Illuminated
Feb 12
Waxing Crescent
Feb 17
First Quarter
Feb 25
Full
Mar 4
Last Quarter
Mar 11
New

Hourly Weather History & Observations

Time (EST) Temp. Windchill Dew Point Humidity Pressure Visibility Wind Dir Wind Speed Gust Speed Precip Events Conditions
12:54 AM 37.0 °F 32.4 °F 27.0 °F 67% 29.61 in 10.0 mi WSW 5.8 mph - N/A   Overcast
1:54 AM 37.9 °F 34.4 °F 26.1 °F 62% 29.62 in 10.0 mi West 4.6 mph - N/A   Overcast
2:54 AM 37.0 °F 33.3 °F 26.1 °F 65% 29.60 in 10.0 mi SSW 4.6 mph - N/A   Overcast
3:54 AM 37.0 °F 32.4 °F 25.0 °F 62% 29.60 in 10.0 mi South 5.8 mph - N/A   Overcast
4:54 AM 36.0 °F 29.0 °F 27.0 °F 70% 29.59 in 10.0 mi South 9.2 mph - N/A   Overcast
5:54 AM 36.0 °F 31.1 °F 27.0 °F 70% 29.60 in 10.0 mi SSW 5.8 mph - N/A   Overcast
6:54 AM 35.1 °F 30.1 °F 27.0 °F 72% 29.60 in 10.0 mi South 5.8 mph - N/A   Overcast
7:54 AM 36.0 °F 32.1 °F 27.0 °F 70% 29.62 in 10.0 mi WSW 4.6 mph - N/A   Mostly Cloudy
8:54 AM 37.9 °F 31.5 °F 26.1 °F 62% 29.64 in 10.0 mi West 9.2 mph - N/A   Overcast
9:54 AM 37.0 °F 29.3 °F 27.0 °F 67% 29.66 in 10.0 mi West 11.5 mph 18.4 mph N/A   Mostly Cloudy
10:54 AM 37.0 °F 31.0 °F 27.0 °F 67% 29.68 in 10.0 mi West 8.1 mph 20.7 mph N/A   Mostly Cloudy
11:54 AM 37.9 °F 30.0 °F 26.1 °F 62% 29.69 in 10.0 mi West 12.7 mph 19.6 mph N/A   Overcast
12:54 PM 37.9 °F 32.1 °F 26.1 °F 62% 29.72 in 10.0 mi West 8.1 mph 17.3 mph N/A   Mostly Cloudy
1:54 PM 37.9 °F 30.0 °F 26.1 °F 62% 29.72 in 10.0 mi WNW 12.7 mph 18.4 mph N/A   Overcast
2:54 PM 37.0 °F 29.8 °F 27.0 °F 67% 29.74 in 10.0 mi WNW 10.4 mph - N/A   Overcast
3:54 PM 37.0 °F 31.0 °F 26.1 °F 65% 29.76 in 10.0 mi West 8.1 mph - N/A   Mostly Cloudy
4:08 PM 37.4 °F 30.8 °F 26.6 °F 65% 29.75 in 10.0 mi West 9.2 mph 17.3 mph N/A   Overcast
4:54 PM 36.0 °F 28.0 °F 26.1 °F 67% 29.76 in 10.0 mi West 11.5 mph - N/A   Overcast
5:54 PM 35.1 °F - 25.0 °F 67% 29.78 in 10.0 mi Calm Calm - N/A   Mostly Cloudy
6:14 PM 35.6 °F 30.7 °F 24.8 °F 65% 29.77 in 10.0 mi WNW 5.8 mph - N/A   Overcast
6:54 PM 35.1 °F 28.6 °F 24.1 °F 64% 29.80 in 10.0 mi West 8.1 mph - N/A   Overcast
7:54 PM 35.1 °F 28.6 °F 24.1 °F 64% 29.82 in 10.0 mi West 8.1 mph 19.6 mph N/A   Overcast
8:54 PM 34.0 °F 26.0 °F 23.0 °F 64% 29.85 in 10.0 mi West 10.4 mph 20.7 mph N/A   Overcast
9:54 PM 34.0 °F 31.0 °F 23.0 °F 64% 29.85 in 9.0 mi SW 3.5 mph - 0.00 in Snow Light Snow
10:54 PM 34.0 °F 28.8 °F 23.0 °F 64% 29.84 in 9.0 mi West 5.8 mph - 0.00 in Snow Light Snow
11:54 PM 34.0 °F 28.0 °F 21.0 °F 59% 29.84 in 9.0 mi West 6.9 mph - 0.00 in   Overcast